Weather History for KMHE - March, 2013

Change the Weather History Date:

Sunday, March 10, 2013

  Actual Average Record
Temperature  
Mean Temperature 23 °F 32 °F  
Max Temperature 31 °F 42 °F 76 °F (2012)
Min Temperature 15 °F 22 °F -10 °F (1948)
Degree Days  
Heating Degree Days 42 33  
Month to date heating degree days 388 349  
Since 1 July heating degree days 5853 5871  
Cooling Degree Days 0 0  
Month to date cooling degree days 0 0  
Year to date cooling degree days 0 0  
Moisture  
Dew Point 16 °F    
Average Humidity 81    
Maximum Humidity 91    
Minimum Humidity 71    
Precipitation  
Precipitation T in 0.02 in 1.66 in (1956)
Month to date precipitation 0.67 0.25  
Year to date precipitation 2.24 0.81  
Snow  
Snow T in - 24.00 in (1956)
Month to date snowfall 1.7  
Since 1 July snowfall 29.6  
Snow Depth 2.00 in    
Sea Level Pressure  
Sea Level Pressure 30.12 in    
Wind  
Wind Speed 22 mph (NNW)    
Max Wind Speed 31 mph    
Max Gust Speed 39 mph    
Visibility 6 miles    
Events Snow    
T = Trace of Precipitation, MM = Missing Value Source: NWS Daily Summary

Daily Weather History Graph

Daily Weather History Graph

Search for Another Location

Airport or City:

Trip Planner

Search our weather history database for the weather conditions in past years. The results will help you decide how hot, cold, wet, or windy it might be!

Date:

Astronomy

Mar. 10, 2013 Rise Set
Actual Time 7:52 AM CDT 7:32 PM CDT
Civil Twilight 7:24 AM CDT 8:01 PM CDT
Nautical Twilight 6:50 AM CDT 8:34 PM CDT
Astronomical Twilight 6:17 AM CDT 9:08 PM CDT
Moon 6:54 AM CDT (3/10) 6:41 PM CDT (3/10)
Length of Visible Light 12h 37m
Length of Day
11h 39m
Waning Crescent, 2% of the Moon is Illuminated
Mar 10
Waning Crescent
Mar 11
New
Mar 19
First Quarter
Mar 27
Full
Apr 2
Last Quarter

Hourly Weather History & Observations

Time (CDT) Temp. Windchill Dew Point Humidity Pressure Visibility Wind Dir Wind Speed Gust Speed Precip Events Conditions
12:09 AM 30.2 °F 16.8 °F 26.6 °F 86% 29.95 in 5.0 mi North 23.0 mph - 0.00 in   Overcast
12:42 AM 28.4 °F 14.4 °F 26.6 °F 93% 29.96 in 7.0 mi NNW 23.0 mph 31.1 mph 0.00 in   Overcast
12:53 AM 28.9 °F 14.0 °F 25.0 °F 85% 30.01 in 5.0 mi NNW 27.6 mph 35.7 mph 0.00 in   Overcast
1:46 AM 24.8 °F 8.1 °F 19.4 °F 80% 30.00 in 9.0 mi NNW 28.8 mph 39.1 mph 0.00 in   Overcast
1:53 AM 24.1 °F 7.7 °F 19.9 °F 84% 30.05 in 6.0 mi NNW 26.5 mph 39.1 mph 0.00 in Snow Blowing Snow
3:39 AM 21.2 °F 4.5 °F 17.6 °F 86% 30.01 in 9.0 mi NNW 24.2 mph 29.9 mph N/A   Overcast
3:53 AM 21.9 °F 4.8 °F 18.0 °F 85% 30.06 in 8.0 mi NNW 26.5 mph 32.2 mph N/A   Overcast
4:53 AM 21.0 °F 5.0 °F 17.1 °F 85% 30.07 in 8.0 mi NNW 21.9 mph - 0.00 in   Overcast
5:53 AM 19.9 °F 2.8 °F 16.0 °F 85% 30.10 in 9.0 mi NNW 24.2 mph 29.9 mph N/A   Overcast
7:53 AM 19.9 °F 3.2 °F 17.1 °F 89% 30.15 in 6.0 mi NNW 23.0 mph 31.1 mph 0.00 in   Overcast
8:53 AM 21.0 °F 2.7 °F 17.1 °F 85% 30.15 in 7.0 mi NNW 29.9 mph 35.7 mph 0.00 in   Overcast
9:04 AM 21.2 °F 3.5 °F 17.6 °F 86% 30.10 in 6.0 mi North 27.6 mph 34.5 mph 0.00 in   Overcast
9:33 AM 21.2 °F 4.2 °F 17.6 °F 86% 30.11 in 1.8 mi North 25.3 mph 36.8 mph 0.00 in Snow Light Snow
9:53 AM 21.0 °F 4.6 °F 16.0 °F 81% 30.17 in 1.8 mi North 23.0 mph 33.4 mph 0.00 in Snow Light Snow
10:00 AM 21.2 °F 4.5 °F 15.8 °F 80% 30.12 in 2.5 mi North 24.2 mph - 0.00 in Snow Light Snow
10:04 AM 21.2 °F 5.6 °F 15.8 °F 80% 30.12 in 3.0 mi North 20.7 mph 29.9 mph 0.00 in Snow Light Snow
10:15 AM 19.4 °F 3.2 °F 15.8 °F 86% 30.13 in 2.5 mi North 20.7 mph 29.9 mph 0.00 in Snow Light Snow
10:53 AM 19.9 °F 3.5 °F 15.1 °F 81% 30.19 in 1.8 mi NNW 21.9 mph - 0.00 in Snow Light Snow
11:36 AM 21.2 °F 4.5 °F 15.8 °F 80% 30.14 in 2.5 mi North 24.2 mph 29.9 mph 0.00 in Snow Light Snow
11:53 AM 19.9 °F 3.5 °F 15.1 °F 81% 30.20 in 1.8 mi North 21.9 mph - 0.00 in Snow Light Snow
12:44 PM 19.4 °F 1.8 °F 12.2 °F 74% 30.13 in 3.0 mi North 25.3 mph 34.5 mph 0.00 in Snow Light Snow
12:53 PM 19.9 °F 3.2 °F 12.9 °F 74% 30.18 in 5.0 mi North 23.0 mph 34.5 mph 0.00 in Snow Light Snow
1:53 PM 21.0 °F 3.0 °F 14.0 °F 74% 30.19 in 8.0 mi North 28.8 mph 33.4 mph 0.00 in Snow Light Snow
2:40 PM 19.4 °F 2.8 °F 15.8 °F 86% 30.12 in 2.0 mi North 21.9 mph 29.9 mph 0.00 in Snow Light Snow
2:53 PM 21.0 °F 4.3 °F 15.1 °F 78% 30.18 in 3.0 mi North 24.2 mph - 0.00 in Snow Light Snow
3:04 PM 21.2 °F 4.2 °F 15.8 °F 80% 30.11 in 1.8 mi North 25.3 mph 31.1 mph 0.00 in Snow Light Snow
3:18 PM 21.2 °F 4.5 °F 15.8 °F 80% 30.10 in 2.0 mi North 24.2 mph 32.2 mph 0.00 in Snow Light Snow
3:40 PM 21.2 °F 3.9 °F 15.8 °F 80% 30.09 in 3.0 mi North 26.5 mph 32.2 mph 0.00 in Snow Light Snow
3:53 PM 21.0 °F 5.0 °F 15.1 °F 78% 30.15 in 4.0 mi North 21.9 mph 28.8 mph 0.00 in Snow Light Snow
4:53 PM 21.9 °F 5.8 °F 16.0 °F 78% 30.15 in 10.0 mi North 23.0 mph 33.4 mph 0.00 in   Overcast
5:53 PM 21.9 °F 6.2 °F 16.0 °F 78% 30.16 in 10.0 mi North 21.9 mph 29.9 mph 0.00 in   Overcast
6:53 PM 21.9 °F 6.2 °F 15.1 °F 75% 30.14 in 10.0 mi North 21.9 mph 32.2 mph 0.00 in   Overcast
7:53 PM 19.9 °F 5.7 °F 14.0 °F 78% 30.16 in 10.0 mi North 16.1 mph - N/A   Mostly Cloudy
8:15 PM 19.4 °F 5.0 °F 14.0 °F 80% 30.10 in 10.0 mi North 16.1 mph 24.2 mph N/A   Partly Cloudy
8:53 PM 19.0 °F 6.1 °F 12.9 °F 77% 30.17 in 10.0 mi North 12.7 mph - N/A   Clear
9:53 PM 18.0 °F 3.1 °F 12.0 °F 78% 30.17 in 10.0 mi NNW 16.1 mph - N/A   Clear
10:53 PM 17.1 °F 2.5 °F 10.9 °F 77% 30.16 in 10.0 mi North 15.0 mph - N/A   Clear
11:53 PM 16.0 °F 1.7 °F 10.0 °F 77% 30.13 in 10.0 mi North 13.8 mph - N/A   Clear
12:53 AM 15.1 °F 0.5 °F 10.0 °F 80% 30.12 in 10.0 mi NNW 13.8 mph - N/A   Clear